EW4075 Weather Reports


time (UTC)temp
F
wind
direction
speed
knots
gust
knots
rain 1hr
in
rain 24hr
in
rain mn
in
humidity
%
barometer
mb
20260510174550 75 303 2.6 5.2 0.00 0.24 0.00 56 1014.3
20260510173044 74 256 1.7 5.2 0.00 0.24 0.00 56 1014.4
20260510171547 73 266 0.9 3.5 0.00 0.24 0.00 58 1014.3
20260510170038 73 321 2.6 6.1 0.00 0.24 0.00 59 1014.2
20260510164533 73 281 0.9 2.6 0.00 0.28 0.00 63 1014.1
20260510163030 71 272 0.0 2.6 0.00 0.28 0.00 66 1014.1
20260510161525 70 66 0.0 3.5 0.00 0.28 0.00 70 1014.1
20260510160021 68 261 0.9 6.1 0.00 0.28 0.00 75 1014.1
20260510154517 67 290 0.0 5.2 0.00 0.30 0.00 78 1014.1
20260510153013 66 294 0.0 2.6 0.00 0.30 0.00 81 1014.3
20260510151508 64 267 0.0 1.7 0.00 0.30 0.00 84 1014.3
20260510150004 62 267 0.0 3.5 0.00 0.30 0.00 86 1014.3
20260510144702 61 115 0.0 1.7 0.00 0.30 0.00 90 1014.5
20260510143056 60 260 0.9 2.6 0.00 0.30 0.00 91 1014.5
20260510141553 59 260 0.0 1.7 0.00 0.30 0.00 93 1014.7
20260510140048 57 260 0.0 0.9 0.00 0.30 0.00 96 1014.6
20260510134545 56 260 0.0 1.7 0.00 0.30 0.00 96 1014.5
20260510133043 56 259 0.0 2.6 0.00 0.30 0.00 97 1014.5
20260510131540 55 57 0.0 0.9 0.00 0.30 0.00 97 1014.7
20260510130039 55 57 0.0 2.6 0.00 0.30 0.00 97 1014.6
20260510124540 54 57 0.0 0.9 0.00 0.30 0.00 97 1014.6
20260510123036 54 57 0.0 0.9 0.00 0.30 0.00 97 1014.6
20260510121533 53 57 0.0 0.9 0.00 0.30 0.00 97 1014.2
20260510120029 53 57 0.0 0.9 0.00 0.30 0.00 97 1014.1
20260510114526 53 57 0.0 0.9 0.00 0.30 0.00 97 1013.7
20260510113032 52 57 0.0 1.7 0.00 0.30 0.00 97 1013.6
20260510111524 52 57 0.0 0.9 0.00 0.30 0.00 97 1013.5
20260510110031 52 57 0.0 0.9 0.00 0.30 0.00 97 1013.5
20260510104519 51 57 0.0 0.9 0.00 0.30 0.00 97 1013.5
20260510103020 51 57 0.0 0.0 0.00 0.30 0.00 97 1013.4
20260510101518 51 57 0.0 0.9 0.00 0.30 0.00 97 1013.1
20260510100011 51 57 0.0 0.9 0.00 0.30 0.00 97 1012.9
20260510094507 51 171 0.0 0.9 0.00 0.30 0.00 97 1013.0
20260510093006 51 171 0.0 0.9 0.00 0.30 0.00 97 1012.7
20260510091505 51 171 0.0 1.7 0.00 0.30 0.00 97 1012.8
20260510090004 51 171 0.0 1.7 0.00 0.30 0.00 97 1012.7
20260510084505 51 196 0.0 0.9 0.00 0.30 0.00 97 1012.9
20260510083002 51 196 0.0 1.7 0.00 0.30 0.00 97 1013.0
20260510081502 50 196 0.0 1.7 0.00 0.30 0.00 97 1013.1
20260510074603 50 224 0.0 0.0 0.00 0.30 0.00 96 1012.2
20260510073056 50 224 0.0 0.9 0.00 0.30 0.00 96 1012.2
20260510071555 50 224 0.0 0.0 0.00 0.30 0.00 96 1012.2
20260510070055 50 225 0.0 2.6 0.00 0.30 0.00 96 1012.3
20260510064604 50 306 0.0 1.7 0.00 0.30 0.00 96 1012.3
20260510063051 50 340 0.0 1.7 0.00 0.30 0.00 96 1012.0
20260510061550 50 83 0.0 0.0 0.00 0.30 0.00 96 1011.7
20260510060046 50 83 0.0 0.0 0.00 0.30 0.00 96 1011.8
20260510054545 50 84 0.0 0.0 0.00 0.30 0.00 96 1011.9
20260510053041 50 83 0.0 0.0 0.00 0.30 0.00 96 1012.1
20260510051537 50 83 0.0 0.0 0.00 0.30 0.00 96 1012.1
20260510050036 50 84 0.0 0.0 0.00 0.30 0.00 96 1012.1
20260510044540 50 83 0.0 0.0 0.00 0.30 0.00 96 1012.2
20260510043031 50 84 0.0 0.0 0.00 0.30 0.00 95 1012.4
20260510041531 50 84 0.0 0.0 0.00 0.30 0.00 95 1012.3
20260510040029 50 83 0.0 0.0 0.00 0.30 0.00 95 1012.4
20260510034527 51 83 0.0 0.0 0.00 0.30 0.30 95 1012.4
20260510033026 51 83 0.0 0.0 0.00 0.30 0.30 95 1012.2
20260510031526 51 83 0.0 0.0 0.00 0.30 0.30 94 1012.2
20260510030033 52 83 0.0 0.0 0.00 0.30 0.30 94 1011.9
20260510024520 52 83 0.0 0.0 0.00 0.30 0.30 94 1011.9
20260510023018 52 83 0.0 0.0 0.00 0.30 0.30 94 1012.0
20260510021521 53 83 0.0 0.0 0.00 0.30 0.30 94 1011.8
20260510020015 53 83 0.0 0.0 0.00 0.30 0.30 94 1011.8
20260510014513 53 83 0.0 0.0 0.00 0.30 0.30 94 1011.6
20260510013014 54 83 0.0 0.0 0.00 0.30 0.30 94 1011.6
20260510011511 54 84 0.0 0.0 0.00 0.30 0.30 94 1011.5
20260510010009 55 83 0.0 0.0 0.00 0.30 0.30 93 1011.4
20260510004508 55 83 0.0 0.0 0.00 0.30 0.30 93 1011.2
20260510003019 55 83 0.0 0.9 0.00 0.30 0.30 93 1011.1
20260510001507 55 83 0.0 0.9 0.00 0.30 0.30 93 1011.1
20260510000007 56 83 0.0 2.6 0.00 0.30 0.30 93 1011.0
20260509234512 56 83 0.0 1.7 0.00 0.30 0.30 93 1011.0
20260509233004 56 83 0.0 1.7 0.00 0.30 0.30 92 1011.1
20260509231505 56 80 0.0 1.7 0.00 0.30 0.30 92 1011.1
20260509230004 57 80 0.0 1.7 0.00 0.30 0.30 92 1011.1
20260509224503 57 88 0.0 2.6 0.00 0.30 0.30 93 1011.0
20260509223002 57 104 0.0 2.6 0.00 0.30 0.30 92 1011.0
20260509221502 57 80 0.0 1.7 0.00 0.30 0.30 93 1011.0
20260509220001 57 98 0.0 1.7 0.00 0.30 0.30 93 1010.9
20260509214603 57 98 0.0 1.7 0.00 0.30 0.30 93 1010.9
20260509213059 57 76 0.0 2.6 0.00 0.30 0.30 93 1011.0
20260509211558 57 323 0.0 0.9 0.00 0.30 0.30 93 1011.1
20260509210058 57 323 0.0 1.7 0.01 0.30 0.30 94 1011.2
20260509204604 56 80 0.0 1.7 0.06 0.30 0.30 94 1011.3
20260509203138 56 293 0.0 2.6 0.07 0.30 0.30 95 1011.3
20260509201612 56 109 0.0 1.7 0.07 0.30 0.30 94 1011.1
20260509200100 56 159 0.0 0.9 0.07 0.28 0.28 93 1011.1
20260509194552 56 159 0.0 1.7 0.06 0.24 0.24 93 1011.4
20260509193059 56 240 0.0 0.9 0.05 0.23 0.23 93 1011.7
20260509191557 56 240 0.0 2.6 0.06 0.23 0.23 92 1012.0
20260509190046 56 257 0.0 1.7 0.06 0.22 0.22 91 1012.3
20260509184545 56 302 0.9 1.7 0.04 0.18 0.18 92 1012.5
20260509183048 56 271 0.0 1.7 0.06 0.18 0.18 92 1012.5
20260509181543 56 270 0.0 1.7 0.08 0.17 0.17 92 1012.4
20260509180042 56 303 0.0 0.9 0.10 0.16 0.16 91 1012.8